MCA123 VQPR-OPLA

Flight info

Callsign MCA123
Flight time 2h 21m
Altitude 36000
Route VDPR/33 SUBSU G348 BGD W105 LOTPU Q18 ELPUR Z2 JAL M890 PUMOT SP W35 ONOGI CHG M890 SULOM SULOM2A OPLA/36R
Aircraft A319/M-SDE3GILORW/C

Departure

Time 2026-04-22 05:49
Airport Paro International Airport (VQPR)

Arrival

Time 2026-04-22 08:10
Airport Allama Iqbal International Airport (OPLA)
Time Latitude Longitude Altitude Speed Heading
2026-04-22 05:37 27.40660 89.42084 7349 ft 0 kts 242°
2026-04-22 05:42 27.40670 89.42104 7350 ft 4 kts 242°
2026-04-22 05:42 27.40680 89.42124 7350 ft 2 kts 238°
2026-04-22 05:43 27.40685 89.42134 7351 ft 1 kts 210°
2026-04-22 05:43 27.40689 89.42136 7351 ft 0 kts 208°
2026-04-22 05:44 27.40679 89.42137 7351 ft 6 kts 157°
2026-04-22 05:44 27.40631 89.42168 7350 ft 8 kts 149°
2026-04-22 05:45 27.40575 89.42203 7351 ft 9 kts 150°
2026-04-22 05:45 27.40510 89.42245 7348 ft 12 kts 149°
2026-04-22 05:45 27.40425 89.42300 7345 ft 15 kts 150°
2026-04-22 05:45 27.40321 89.42366 7340 ft 18 kts 150°
2026-04-22 05:46 27.40200 89.42445 7334 ft 21 kts 150°
2026-04-22 05:46 27.40062 89.42533 7326 ft 23 kts 150°
2026-04-22 05:46 27.39914 89.42628 7319 ft 25 kts 150°
2026-04-22 05:46 27.39756 89.42729 7314 ft 26 kts 150°
2026-04-22 05:47 27.39598 89.42831 7309 ft 26 kts 150°
2026-04-22 05:47 27.39447 89.42928 7306 ft 18 kts 149°
2026-04-22 05:47 27.39433 89.43006 7304 ft 10 kts 55°
2026-04-22 05:47 27.39486 89.43008 7305 ft 10 kts 329°
2026-04-22 05:48 27.39674 89.42887 7310 ft 65 kts 330°
2026-04-22 05:48 27.40282 89.42499 7336 ft 133 kts 330°
2026-04-22 05:48 27.41249 89.41925 7448 ft 175 kts 340°
2026-04-22 05:48 27.42437 89.41408 7907 ft 193 kts 335°
2026-04-22 05:49 27.43512 89.40449 8505 ft 208 kts 304°
2026-04-22 05:49 27.44269 89.39021 9231 ft 222 kts 300°
2026-04-22 05:49 27.44709 89.37426 10399 ft 210 kts 271°
2026-04-22 05:49 27.44326 89.36002 11504 ft 193 kts 225°
2026-04-22 05:50 27.43340 89.34987 12259 ft 195 kts 218°
2026-04-22 05:50 27.42502 89.34306 12877 ft 193 kts 214°
2026-04-22 05:50 27.41403 89.33449 13566 ft 196 kts 216°
2026-04-22 05:50 27.40300 89.32497 14109 ft 206 kts 219°
2026-04-22 05:51 27.39184 89.31432 14624 ft 219 kts 222°
2026-04-22 05:51 27.38028 89.30253 15176 ft 233 kts 224°
2026-04-22 05:51 27.36809 89.28958 15782 ft 246 kts 225°
2026-04-22 05:51 27.35569 89.27613 16302 ft 254 kts 225°
2026-04-22 05:52 27.34284 89.26205 16617 ft 263 kts 226°
2026-04-22 05:52 27.32939 89.24722 16851 ft 276 kts 226°
2026-04-22 05:52 27.31541 89.23177 17089 ft 288 kts 226°
2026-04-22 05:52 27.30088 89.21571 17324 ft 301 kts 226°
2026-04-22 05:53 27.28567 89.19888 17559 ft 314 kts 226°
2026-04-22 05:53 27.26967 89.18119 17795 ft 327 kts 226°
2026-04-22 05:53 27.25327 89.16307 18026 ft 339 kts 226°
2026-04-22 05:53 27.23614 89.14414 18255 ft 352 kts 226°
2026-04-22 05:54 27.21824 89.12437 18483 ft 365 kts 226°
2026-04-22 05:54 27.19989 89.10412 18703 ft 377 kts 226°
2026-04-22 05:54 27.18092 89.08320 18922 ft 389 kts 226°
2026-04-22 05:54 27.16146 89.06175 19133 ft 401 kts 226°
2026-04-22 05:55 27.14110 89.03930 19346 ft 413 kts 226°
2026-04-22 05:55 27.12038 89.01647 19549 ft 425 kts 226°
2026-04-22 05:55 27.09885 88.99275 19753 ft 437 kts 226°
2026-04-22 05:55 27.07705 88.96874 19948 ft 448 kts 226°
2026-04-22 05:56 27.05478 88.94402 20252 ft 455 kts 223°
2026-04-22 05:56 27.03223 88.91930 20980 ft 452 kts 222°
2026-04-22 05:56 27.01011 88.89492 21760 ft 448 kts 224°
2026-04-22 05:56 26.98930 88.86905 22397 ft 447 kts 229°
2026-04-22 05:57 26.97047 88.84173 22929 ft 447 kts 234°
2026-04-22 05:57 26.95331 88.81253 23400 ft 448 kts 238°
2026-04-22 05:57 26.93709 88.78286 23833 ft 450 kts 239°
2026-04-22 05:57 26.92093 88.75292 24219 ft 452 kts 239°
2026-04-22 05:58 26.90469 88.72283 24572 ft 454 kts 239°
2026-04-22 05:58 26.88826 88.69256 24910 ft 456 kts 239°
2026-04-22 05:58 26.87168 88.66231 25229 ft 458 kts 239°
2026-04-22 05:58 26.85486 88.63161 25536 ft 460 kts 239°
2026-04-22 05:59 26.83826 88.60125 25873 ft 461 kts 239°
2026-04-22 05:59 26.82158 88.57074 26314 ft 459 kts 239°
2026-04-22 05:59 26.80483 88.54008 26762 ft 458 kts 239°
2026-04-22 05:59 26.78845 88.51007 27170 ft 456 kts 239°
2026-04-22 06:00 26.77190 88.47974 27560 ft 455 kts 239°
2026-04-22 06:00 26.75548 88.44968 27938 ft 454 kts 239°
2026-04-22 06:00 26.73914 88.41982 28308 ft 453 kts 239°
2026-04-22 06:00 26.72264 88.38975 28673 ft 452 kts 239°
2026-04-22 06:01 26.70446 88.36118 29010 ft 453 kts 233°
2026-04-22 06:01 26.68341 88.33508 29350 ft 453 kts 226°
2026-04-22 06:01 26.65965 88.31152 29702 ft 454 kts 220°
2026-04-22 06:01 26.63381 88.29126 30037 ft 455 kts 214°
2026-04-22 06:02 26.60693 88.27303 30366 ft 455 kts 213°
2026-04-22 06:02 26.57988 88.25523 30676 ft 454 kts 213°
2026-04-22 06:02 26.55270 88.23747 30977 ft 454 kts 213°
2026-04-22 06:02 26.52581 88.21989 31269 ft 453 kts 213°
2026-04-22 06:03 26.49872 88.20216 31558 ft 452 kts 213°
2026-04-22 06:03 26.47162 88.18441 31841 ft 452 kts 213°
2026-04-22 06:03 26.44459 88.16669 32117 ft 451 kts 213°
2026-04-22 06:03 26.41765 88.14902 32385 ft 450 kts 213°
2026-04-22 06:04 26.39092 88.13150 32644 ft 450 kts 213°
2026-04-22 06:04 26.36388 88.11377 32900 ft 449 kts 213°
2026-04-22 06:04 26.33694 88.09612 33147 ft 449 kts 213°
2026-04-22 06:04 26.31034 88.07870 33386 ft 448 kts 213°
2026-04-22 06:05 26.28360 88.06118 33619 ft 448 kts 213°
2026-04-22 06:05 26.25667 88.04356 33844 ft 447 kts 213°
2026-04-22 06:05 26.22993 88.02607 34064 ft 447 kts 213°
2026-04-22 06:05 26.20338 88.00873 34280 ft 446 kts 213°
2026-04-22 06:06 26.17705 87.99035 34486 ft 444 kts 218°
2026-04-22 06:06 26.15329 87.96894 34679 ft 441 kts 225°
2026-04-22 06:06 26.13221 87.94429 34869 ft 438 kts 232°
2026-04-22 06:06 26.11439 87.91726 35050 ft 436 kts 239°
2026-04-22 06:07 26.09980 87.88793 35225 ft 434 kts 246°
2026-04-22 06:07 26.08876 87.85719 35392 ft 432 kts 253°
2026-04-22 06:07 26.08111 87.82463 35554 ft 431 kts 259°
2026-04-22 06:07 26.07536 87.79216 35608 ft 434 kts 260°
2026-04-22 06:08 26.06425 87.72560 35657 ft 439 kts 260°
2026-04-22 06:08 26.05300 87.65866 35773 ft 442 kts 260°
2026-04-22 06:09 26.04164 87.59187 35941 ft 443 kts 260°
2026-04-22 06:09 26.03015 87.52470 36057 ft 443 kts 260°
2026-04-22 06:10 26.01863 87.45763 36063 ft 443 kts 260°
2026-04-22 06:10 26.00706 87.39046 36063 ft 443 kts 260°
2026-04-22 06:11 25.99548 87.32346 36063 ft 443 kts 259°
2026-04-22 06:11 25.98436 87.25632 36062 ft 443 kts 262°
2026-04-22 06:12 25.97958 87.18793 36062 ft 442 kts 269°
2026-04-22 06:12 25.98328 87.12034 36062 ft 442 kts 277°
2026-04-22 06:13 25.99539 87.05359 36048 ft 442 kts 284°
2026-04-22 06:13 26.01219 86.98785 35995 ft 441 kts 284°
2026-04-22 06:14 26.02911 86.92261 35921 ft 440 kts 284°
2026-04-22 06:14 26.04595 86.85743 35844 ft 440 kts 284°
2026-04-22 06:15 26.06277 86.79211 35792 ft 440 kts 284°
2026-04-22 06:15 26.07953 86.72687 35771 ft 440 kts 284°
2026-04-22 06:16 26.09624 86.66166 35764 ft 440 kts 284°
2026-04-22 06:16 26.11284 86.59676 35761 ft 440 kts 284°
2026-04-22 06:17 26.12954 86.53136 35761 ft 440 kts 284°
2026-04-22 06:17 26.14625 86.46575 35761 ft 440 kts 284°
2026-04-22 06:18 26.16280 86.40065 35761 ft 440 kts 284°
2026-04-22 06:18 26.17946 86.33495 35762 ft 440 kts 284°
2026-04-22 06:19 26.19585 86.26991 35761 ft 440 kts 284°
2026-04-22 06:19 26.21242 86.20418 35761 ft 440 kts 284°
2026-04-22 06:20 26.22884 86.13896 35761 ft 440 kts 284°
2026-04-22 06:20 26.24526 86.07366 35761 ft 440 kts 284°
2026-04-22 06:21 26.26173 86.00807 35761 ft 440 kts 284°
2026-04-22 06:21 26.27808 85.94282 35761 ft 440 kts 284°
2026-04-22 06:22 26.29445 85.87735 35761 ft 440 kts 284°
2026-04-22 06:22 26.31070 85.81220 35761 ft 440 kts 284°
2026-04-22 06:23 26.32704 85.74660 35761 ft 440 kts 284°
2026-04-22 06:23 26.34327 85.68124 35761 ft 440 kts 284°
2026-04-22 06:24 26.36759 85.58312 35761 ft 440 kts 284°
2026-04-22 06:25 26.38387 85.51724 35761 ft 440 kts 284°
2026-04-22 06:25 26.39997 85.45196 35761 ft 440 kts 284°
2026-04-22 06:26 26.41612 85.38636 35761 ft 440 kts 284°
2026-04-22 06:26 26.43224 85.32064 35761 ft 440 kts 283°
2026-04-22 06:27 26.44832 85.25475 35761 ft 440 kts 283°
2026-04-22 06:27 26.46427 85.18935 35761 ft 440 kts 283°
2026-04-22 06:28 26.48028 85.12371 35761 ft 439 kts 284°
2026-04-22 06:28 26.49629 85.05791 35761 ft 438 kts 284°
2026-04-22 06:29 26.51213 84.99273 35761 ft 437 kts 284°
2026-04-22 06:29 26.52794 84.92749 35761 ft 436 kts 284°
2026-04-22 06:30 26.54371 84.86228 35761 ft 436 kts 284°
2026-04-22 06:30 26.55952 84.79680 35761 ft 436 kts 284°
2026-04-22 06:31 26.57518 84.73180 35765 ft 436 kts 284°
2026-04-22 06:31 26.59089 84.66642 35778 ft 436 kts 284°
2026-04-22 06:32 26.60654 84.60115 35790 ft 436 kts 284°
2026-04-22 06:32 26.62217 84.53581 35792 ft 436 kts 284°
2026-04-22 06:33 26.63784 84.47021 35783 ft 436 kts 284°
2026-04-22 06:33 26.65322 84.40566 35770 ft 436 kts 284°
2026-04-22 06:34 26.66883 84.33997 35766 ft 436 kts 283°
2026-04-22 06:34 26.68426 84.27469 35762 ft 436 kts 283°
2026-04-22 06:35 26.69971 84.20921 35761 ft 436 kts 283°
2026-04-22 06:35 26.71515 84.14377 35761 ft 436 kts 283°
2026-04-22 06:36 26.73054 84.07845 35762 ft 436 kts 283°
2026-04-22 06:36 26.74597 84.01281 35775 ft 436 kts 283°
2026-04-22 06:37 26.76127 83.94759 35794 ft 436 kts 283°
2026-04-22 06:37 26.77659 83.88213 35816 ft 436 kts 283°
2026-04-22 06:38 26.79186 83.81677 35839 ft 436 kts 283°
2026-04-22 06:38 26.80717 83.75107 35862 ft 436 kts 283°
2026-04-22 06:39 26.82240 83.68555 35885 ft 436 kts 283°
2026-04-22 06:39 26.83757 83.62013 35908 ft 436 kts 283°
2026-04-22 06:40 26.85272 83.55467 35932 ft 436 kts 283°
2026-04-22 06:40 26.86788 83.48904 35954 ft 436 kts 283°
2026-04-22 06:41 26.88292 83.42378 35950 ft 436 kts 283°
2026-04-22 06:41 26.89803 83.35809 35918 ft 435 kts 283°
2026-04-22 06:42 26.91298 83.29275 35877 ft 434 kts 282°
2026-04-22 06:42 26.92784 83.22766 35844 ft 432 kts 282°
2026-04-22 06:43 26.94272 83.16238 35831 ft 431 kts 282°
2026-04-22 06:43 26.95752 83.09741 35825 ft 430 kts 282°
2026-04-22 06:44 26.97221 83.03277 35813 ft 429 kts 282°
2026-04-22 06:44 26.98688 82.96800 35798 ft 428 kts 282°
2026-04-22 06:45 27.00142 82.90370 35792 ft 426 kts 282°
2026-04-22 06:45 27.01587 82.83965 35790 ft 425 kts 282°
2026-04-22 06:46 27.03029 82.77561 35788 ft 423 kts 282°
2026-04-22 06:46 27.04462 82.71190 35788 ft 422 kts 282°
2026-04-22 06:47 27.05892 82.64810 35789 ft 422 kts 282°
2026-04-22 06:47 27.07317 82.58437 35789 ft 423 kts 282°
2026-04-22 06:48 27.08745 82.52039 35788 ft 423 kts 282°
2026-04-22 06:48 27.10167 82.45657 35788 ft 422 kts 282°
2026-04-22 06:49 27.11609 82.39287 35789 ft 423 kts 282°
2026-04-22 06:49 27.13046 82.32893 35791 ft 422 kts 282°
2026-04-22 06:50 27.14457 82.26516 35789 ft 422 kts 282°
2026-04-22 06:50 27.15864 82.20147 35788 ft 422 kts 282°
2026-04-22 06:51 27.17267 82.13776 35788 ft 422 kts 282°
2026-04-22 06:51 27.18673 82.07374 35789 ft 422 kts 282°
2026-04-22 06:52 27.20065 82.01024 35788 ft 423 kts 282°
2026-04-22 06:52 27.21465 81.94619 35789 ft 422 kts 282°
2026-04-22 06:53 27.22866 81.88201 35789 ft 422 kts 282°
2026-04-22 06:53 27.24254 81.81815 35789 ft 422 kts 282°
2026-04-22 06:54 27.25636 81.75453 35789 ft 422 kts 282°
2026-04-22 06:54 27.27022 81.69054 35789 ft 422 kts 282°
2026-04-22 06:55 27.28405 81.62650 35789 ft 422 kts 282°
2026-04-22 06:55 27.29788 81.56242 35788 ft 422 kts 282°
2026-04-22 06:56 27.31163 81.49847 35788 ft 423 kts 282°
2026-04-22 06:56 27.32538 81.43431 35790 ft 422 kts 282°
2026-04-22 06:57 27.33902 81.37061 35788 ft 422 kts 282°
2026-04-22 06:57 27.35275 81.30624 35789 ft 422 kts 281°
2026-04-22 06:58 27.36630 81.24242 35789 ft 422 kts 281°
2026-04-22 06:58 27.37991 81.17829 35788 ft 422 kts 281°
2026-04-22 06:59 27.39344 81.11443 35788 ft 422 kts 281°
2026-04-22 06:59 27.40706 81.05004 35787 ft 421 kts 281°
2026-04-22 07:00 27.42053 80.98610 35788 ft 421 kts 282°
2026-04-22 07:00 27.43393 80.92238 35789 ft 420 kts 282°
2026-04-22 07:01 27.44739 80.85844 35789 ft 420 kts 282°
2026-04-22 07:01 27.46074 80.79475 35790 ft 420 kts 282°
2026-04-22 07:02 27.47403 80.73119 35790 ft 419 kts 282°
2026-04-22 07:02 27.48734 80.66728 35788 ft 419 kts 282°
2026-04-22 07:03 27.50053 80.60393 35787 ft 419 kts 282°
2026-04-22 07:03 27.51377 80.54017 35789 ft 419 kts 282°
2026-04-22 07:04 27.52700 80.47629 35788 ft 419 kts 282°
2026-04-22 07:04 27.54022 80.41228 35789 ft 419 kts 282°
2026-04-22 07:05 27.55335 80.34853 35789 ft 419 kts 281°
2026-04-22 07:05 27.56635 80.28500 35788 ft 418 kts 282°
2026-04-22 07:06 27.57942 80.22115 35788 ft 419 kts 282°
2026-04-22 07:06 27.59252 80.15713 35790 ft 419 kts 282°
2026-04-22 07:07 27.60552 80.09336 35788 ft 419 kts 282°
2026-04-22 07:07 27.61853 80.02949 35788 ft 419 kts 282°
2026-04-22 07:08 27.63146 79.96596 35788 ft 419 kts 282°
2026-04-22 07:08 27.64449 79.90175 35789 ft 419 kts 282°
2026-04-22 07:09 27.65740 79.83810 35788 ft 419 kts 282°
2026-04-22 07:09 27.67028 79.77412 35789 ft 419 kts 282°
2026-04-22 07:10 27.68759 79.71119 35789 ft 421 kts 290°
2026-04-22 07:10 27.71335 79.65220 35788 ft 424 kts 298°
2026-04-22 07:11 27.74741 79.59804 35788 ft 428 kts 306°
2026-04-22 07:11 27.78847 79.54913 35788 ft 430 kts 311°
2026-04-22 07:12 27.83086 79.50160 35790 ft 431 kts 311°
2026-04-22 07:12 27.87327 79.45405 35789 ft 431 kts 311°
2026-04-22 07:13 27.91579 79.40624 35788 ft 431 kts 311°
2026-04-22 07:13 27.95817 79.35854 35789 ft 431 kts 311°
2026-04-22 07:14 28.00030 79.31086 35789 ft 431 kts 310°
2026-04-22 07:14 28.04261 79.26292 35785 ft 432 kts 310°
2026-04-22 07:15 28.08496 79.21496 35779 ft 431 kts 310°
2026-04-22 07:15 28.12723 79.16728 35789 ft 431 kts 311°
2026-04-22 07:16 28.16976 79.11939 35801 ft 431 kts 310°
2026-04-22 07:16 28.21178 79.07187 35810 ft 430 kts 310°
2026-04-22 07:17 28.25401 79.02397 35812 ft 429 kts 310°
2026-04-22 07:17 28.29590 78.97637 35815 ft 429 kts 311°
2026-04-22 07:18 28.33797 78.92852 35812 ft 428 kts 311°
2026-04-22 07:18 28.38000 78.88068 35814 ft 429 kts 311°
2026-04-22 07:19 28.42203 78.83276 35814 ft 429 kts 311°
2026-04-22 07:19 28.46473 78.78593 35814 ft 431 kts 314°
2026-04-22 07:20 28.51117 78.74314 35813 ft 433 kts 318°
2026-04-22 07:20 28.55873 78.70188 35814 ft 433 kts 318°
2026-04-22 07:21 28.60663 78.66042 35817 ft 433 kts 318°
2026-04-22 07:21 28.65449 78.61892 35817 ft 433 kts 318°
2026-04-22 07:22 28.70220 78.57749 35814 ft 433 kts 318°
2026-04-22 07:22 28.74969 78.53622 35818 ft 433 kts 318°
2026-04-22 07:23 28.79758 78.49453 35819 ft 433 kts 318°
2026-04-22 07:23 28.84512 78.45310 35816 ft 433 kts 318°
2026-04-22 07:24 28.89305 78.41129 35821 ft 433 kts 318°
2026-04-22 07:24 28.94073 78.36965 35824 ft 433 kts 318°
2026-04-22 07:25 28.98830 78.32798 35827 ft 433 kts 317°
2026-04-22 07:25 29.03562 78.28634 35829 ft 431 kts 317°
2026-04-22 07:26 29.08283 78.24487 35831 ft 429 kts 316°
2026-04-22 07:26 29.13027 78.20333 35835 ft 429 kts 316°
2026-04-22 07:27 29.17758 78.16196 35838 ft 428 kts 316°
2026-04-22 07:27 29.22456 78.12071 35836 ft 427 kts 316°
2026-04-22 07:28 29.29516 78.05857 35840 ft 429 kts 316°
2026-04-22 07:28 29.34205 78.01720 35841 ft 428 kts 316°
2026-04-22 07:29 29.38904 77.97570 35843 ft 428 kts 316°
2026-04-22 07:29 29.43596 77.93420 35840 ft 427 kts 316°
2026-04-22 07:30 29.48325 77.89233 35842 ft 429 kts 316°
2026-04-22 07:30 29.53024 77.85068 35843 ft 428 kts 316°
2026-04-22 07:31 29.57673 77.80943 35841 ft 428 kts 316°
2026-04-22 07:31 29.62379 77.76762 35841 ft 429 kts 316°
2026-04-22 07:32 29.67057 77.72600 35843 ft 428 kts 316°
2026-04-22 07:32 29.71769 77.68406 35841 ft 429 kts 316°
2026-04-22 07:33 29.76442 77.64239 35841 ft 428 kts 316°
2026-04-22 07:33 29.81126 77.60059 35843 ft 428 kts 316°
2026-04-22 07:34 29.85821 77.55866 35841 ft 429 kts 316°
2026-04-22 07:34 29.90512 77.51675 35841 ft 428 kts 316°
2026-04-22 07:35 29.95218 77.47457 35840 ft 428 kts 316°
2026-04-22 07:35 30.00098 77.43486 35841 ft 433 kts 321°
2026-04-22 07:36 30.05331 77.40060 35840 ft 438 kts 326°
2026-04-22 07:36 30.10746 77.36901 35841 ft 438 kts 327°
2026-04-22 07:37 30.16184 77.33760 35844 ft 438 kts 326°
2026-04-22 07:37 30.21631 77.30576 35844 ft 437 kts 326°
2026-04-22 07:38 30.27009 77.27436 35840 ft 437 kts 326°
2026-04-22 07:38 30.32401 77.24211 35842 ft 434 kts 323°
2026-04-22 07:39 30.37386 77.20419 35843 ft 428 kts 316°
2026-04-22 07:39 30.41866 77.15957 35842 ft 423 kts 310°
2026-04-22 07:40 30.45747 77.10964 35840 ft 418 kts 303°
2026-04-22 07:40 30.49283 77.05630 35837 ft 417 kts 302°
2026-04-22 07:41 30.52776 77.00300 35832 ft 418 kts 302°
2026-04-22 07:41 30.56273 76.94952 35825 ft 418 kts 302°
2026-04-22 07:42 30.59772 76.89604 35818 ft 417 kts 302°
2026-04-22 07:42 30.63247 76.84257 35817 ft 416 kts 301°
2026-04-22 07:43 30.66398 76.78693 35815 ft 412 kts 296°
2026-04-22 07:43 30.69068 76.72829 35815 ft 410 kts 291°
2026-04-22 07:44 30.71234 76.66740 35815 ft 408 kts 288°
2026-04-22 07:44 30.73168 76.60570 35815 ft 408 kts 287°
2026-04-22 07:45 30.75105 76.54346 35815 ft 408 kts 287°
2026-04-22 07:45 30.77020 76.48174 35815 ft 408 kts 287°
2026-04-22 07:46 30.78941 76.41967 35815 ft 408 kts 287°
2026-04-22 07:46 30.80854 76.35767 35815 ft 408 kts 287°
2026-04-22 07:47 30.82765 76.29550 35816 ft 408 kts 287°
2026-04-22 07:47 30.84657 76.23387 35209 ft 399 kts 287°
2026-04-22 07:48 30.85576 76.20395 34708 ft 393 kts 287°
2026-04-22 07:48 30.86485 76.17432 34205 ft 387 kts 287°
2026-04-22 07:48 30.87383 76.14507 33702 ft 381 kts 287°
2026-04-22 07:48 30.88264 76.11626 33199 ft 377 kts 287°
2026-04-22 07:49 30.89132 76.08781 32698 ft 373 kts 287°
2026-04-22 07:49 30.89991 76.05970 32198 ft 369 kts 288°
2026-04-22 07:49 30.90842 76.03178 31694 ft 365 kts 288°
2026-04-22 07:49 30.91686 76.00412 31192 ft 362 kts 288°
2026-04-22 07:50 30.92525 75.97662 30690 ft 359 kts 288°
2026-04-22 07:50 30.93347 75.94968 30194 ft 357 kts 288°
2026-04-22 07:50 30.94173 75.92260 29691 ft 354 kts 289°
2026-04-22 07:50 30.94995 75.89558 29186 ft 352 kts 289°
2026-04-22 07:51 30.95811 75.86875 28682 ft 350 kts 289°
2026-04-22 07:51 30.96618 75.84213 28180 ft 348 kts 289°
2026-04-22 07:51 30.97419 75.81580 27681 ft 347 kts 289°
2026-04-22 07:51 30.98216 75.78954 27180 ft 345 kts 289°
2026-04-22 07:52 30.99012 75.76327 26678 ft 344 kts 290°
2026-04-22 07:52 30.99803 75.73714 26175 ft 342 kts 290°
2026-04-22 07:52 31.00592 75.71112 25673 ft 341 kts 290°
2026-04-22 07:52 31.01368 75.68548 25177 ft 340 kts 290°
2026-04-22 07:53 31.02152 75.65951 24673 ft 338 kts 290°
2026-04-22 07:53 31.02925 75.63390 24174 ft 337 kts 290°
2026-04-22 07:53 31.03701 75.60817 23673 ft 336 kts 290°
2026-04-22 07:53 31.04476 75.58244 23166 ft 335 kts 290°
2026-04-22 07:54 31.05239 75.55713 22669 ft 334 kts 290°
2026-04-22 07:54 31.06010 75.53150 22165 ft 334 kts 290°
2026-04-22 07:54 31.06771 75.50616 21666 ft 333 kts 290°
2026-04-22 07:54 31.07535 75.48075 21162 ft 332 kts 290°
2026-04-22 07:55 31.08293 75.45547 20661 ft 331 kts 290°
2026-04-22 07:55 31.09052 75.43018 20159 ft 330 kts 290°
2026-04-22 07:55 31.09806 75.40499 19657 ft 330 kts 290°
2026-04-22 07:55 31.10560 75.37999 19160 ft 329 kts 291°
2026-04-22 07:56 31.11327 75.35480 18656 ft 328 kts 291°
2026-04-22 07:56 31.12080 75.32989 18157 ft 328 kts 290°
2026-04-22 07:56 31.12836 75.30469 17653 ft 328 kts 290°
2026-04-22 07:56 31.13585 75.27962 17151 ft 327 kts 290°
2026-04-22 07:57 31.14323 75.25491 16656 ft 327 kts 290°
2026-04-22 07:57 31.15072 75.22977 16151 ft 326 kts 290°
2026-04-22 07:57 31.15809 75.20503 15654 ft 326 kts 290°
2026-04-22 07:57 31.16551 75.18007 15152 ft 325 kts 290°
2026-04-22 07:58 31.17294 75.15509 14649 ft 325 kts 290°
2026-04-22 07:58 31.18032 75.13023 14148 ft 325 kts 290°
2026-04-22 07:58 31.18771 75.10534 13645 ft 324 kts 290°
2026-04-22 07:58 31.19497 75.08084 13150 ft 323 kts 290°
2026-04-22 07:59 31.20231 75.05606 12649 ft 323 kts 290°
2026-04-22 07:59 31.20961 75.03137 12148 ft 322 kts 290°
2026-04-22 07:59 31.21695 75.00657 11645 ft 322 kts 290°
2026-04-22 07:59 31.22422 74.98193 11144 ft 321 kts 290°
2026-04-22 08:00 31.23141 74.95757 10647 ft 320 kts 290°
2026-04-22 08:00 31.23866 74.93300 10146 ft 319 kts 290°
2026-04-22 08:00 31.24588 74.90850 9644 ft 318 kts 290°
2026-04-22 08:00 31.25305 74.88417 9143 ft 317 kts 290°
2026-04-22 08:01 31.26019 74.85992 8643 ft 316 kts 290°
2026-04-22 08:01 31.26712 74.83637 8155 ft 314 kts 290°
2026-04-22 08:01 31.27329 74.81540 7719 ft 313 kts 290°
2026-04-22 08:01 31.28010 74.79223 7236 ft 312 kts 290°
2026-04-22 08:02 31.28731 74.76768 6721 ft 311 kts 290°
2026-04-22 08:02 31.29432 74.74378 6219 ft 309 kts 290°
2026-04-22 08:02 31.30121 74.72025 5721 ft 308 kts 289°
2026-04-22 08:02 31.30817 74.69650 5217 ft 306 kts 289°
2026-04-22 08:03 31.31499 74.67323 4721 ft 305 kts 289°
2026-04-22 08:03 31.32182 74.64985 4220 ft 303 kts 289°
2026-04-22 08:03 31.32866 74.62641 3715 ft 302 kts 289°
2026-04-22 08:03 31.33540 74.60332 3216 ft 301 kts 289°
2026-04-22 08:04 31.34203 74.58025 2856 ft 294 kts 287°
2026-04-22 08:04 31.34600 74.55733 2785 ft 278 kts 276°
2026-04-22 08:04 31.34694 74.53548 2778 ft 261 kts 271°
2026-04-22 08:04 31.34713 74.51479 2775 ft 245 kts 271°
2026-04-22 08:05 31.34723 74.49582 2765 ft 219 kts 271°
2026-04-22 08:05 31.34735 74.47894 2770 ft 199 kts 271°
2026-04-22 08:05 31.34751 74.46267 2781 ft 201 kts 271°
2026-04-22 08:05 31.34769 74.44638 2779 ft 201 kts 271°
2026-04-22 08:06 31.34797 74.42994 2778 ft 201 kts 275°
2026-04-22 08:06 31.35245 74.41479 2767 ft 200 kts 304°
2026-04-22 08:06 31.36314 74.40442 2762 ft 198 kts 337°
2026-04-22 08:06 31.37579 74.40164 2750 ft 173 kts 355°
2026-04-22 08:07 31.38708 74.40173 2762 ft 161 kts
2026-04-22 08:07 31.39836 74.40226 2778 ft 162 kts
2026-04-22 08:07 31.40965 74.40266 2612 ft 161 kts 359°
2026-04-22 08:07 31.42089 74.40290 2396 ft 161 kts 359°
2026-04-22 08:08 31.43210 74.40308 2181 ft 160 kts 359°
2026-04-22 08:08 31.44334 74.40324 1966 ft 160 kts 359°
2026-04-22 08:08 31.45434 74.40343 1755 ft 160 kts 359°
2026-04-22 08:08 31.46546 74.40385 1535 ft 160 kts
2026-04-22 08:09 31.47651 74.40406 1319 ft 159 kts 358°
2026-04-22 08:09 31.48758 74.40407 1103 ft 159 kts 359°
2026-04-22 08:09 31.49856 74.40427 876 ft 156 kts 359°
2026-04-22 08:09 31.50893 74.40437 718 ft 137 kts 359°
2026-04-22 08:10 31.51739 74.40449 708 ft 99 kts
2026-04-22 08:10 31.52256 74.40459 712 ft 51 kts
2026-04-22 08:10 31.52599 74.40465 714 ft 47 kts
2026-04-22 08:10 31.52763 74.40468 714 ft 17 kts
2026-04-22 08:11 31.52816 74.40524 714 ft 10 kts 86°
2026-04-22 08:11 31.52818 74.40616 714 ft 12 kts 90°
2026-04-22 08:11 31.52784 74.40680 714 ft 9 kts 178°
2026-04-22 08:11 31.52708 74.40680 714 ft 11 kts 181°
2026-04-22 08:12 31.52622 74.40677 714 ft 13 kts 182°
2026-04-22 08:12 31.52525 74.40675 714 ft 14 kts 181°
2026-04-22 08:12 31.52428 74.40673 714 ft 9 kts 180°
2026-04-22 08:12 31.52410 74.40737 714 ft 10 kts 95°
2026-04-22 08:13 31.52404 74.40828 714 ft 9 kts 114°
2026-04-22 08:13 31.52337 74.40841 714 ft 11 kts 180°
2026-04-22 08:13 31.52254 74.40840 714 ft 12 kts 181°
2026-04-22 08:13 31.52159 74.40840 714 ft 14 kts 180°
2026-04-22 08:14 31.52055 74.40840 714 ft 15 kts 180°
2026-04-22 08:14 31.51947 74.40840 713 ft 12 kts 181°
2026-04-22 08:14 31.51915 74.40840 712 ft 0 kts 157°
2026-04-22 08:14 31.51914 74.40845 712 ft 1 kts 81°
2026-04-22 08:15 31.51918 74.40874 712 ft 5 kts 90°
2026-04-22 08:15 31.51917 74.40923 712 ft 4 kts 90°
2026-04-22 08:15 31.51917 74.40949 712 ft 2 kts 90°
2026-04-22 08:15 31.51917 74.40958 712 ft 0 kts 89°